K3TXT-1 Weather Reports


time (UTC)temp
C
wind
direction
speed
KPH
gust
KPH
rain 1hr
cm
rain 24hr
cm
rain mn
cm
humidity
%
barometer
mb
20260505053359 14 259 1.6 6.4 0.00 0.00 0.00 73
20260505053159 14 260 0.0 6.4 0.00 0.00 0.00 73
20260505053004 14 258 1.6 6.4 0.00 0.00 0.00 73
20260505052801 14 213 0.0 4.8 0.00 0.00 0.00 73
20260505052559 14 214 1.6 4.8 0.00 0.00 0.00 74
20260505052359 14 160 0.0 3.2 0.00 0.00 0.00 75
20260505052200 14 160 0.0 3.2 0.00 0.00 0.00 75
20260505051758 14 152 0.0 0.0 0.00 0.00 0.00 75
20260505051559 14 152 0.0 0.0 0.00 0.00 0.00 75
20260505051359 14 151 0.0 0.0 0.00 0.00 0.00 75
20260505051159 14 151 0.0 0.0 0.00 0.00 0.00 74
20260505051001 14 151 0.0 0.0 0.00 0.00 0.00 74
20260505050800 14 152 0.0 0.0 0.00 0.00 0.00 75
20260505050559 14 151 0.0 1.6 0.00 0.00 0.00 75
20260505041559 15 153 0.0 0.0 0.00 0.00 0.00 78
20260505041159 15 153 0.0 0.0 0.00 0.00 0.00 78
20260505041001 15 154 0.0 0.0 0.00 0.00 0.00 78
20260505040800 15 153 0.0 0.0 0.00 0.00 0.00 78
20260505040559 15 154 0.0 0.0 0.00 0.00 0.00 78
20260505040400 15 153 0.0 0.0 0.00 0.00 0.00 79
20260505040158 15 153 0.0 0.0 0.00 0.00 0.00 79
20260505040000 15 153 0.0 0.0 0.00 0.00 0.00 78
20260505035759 15 153 0.0 0.0 0.00 0.00 0.00 78
20260505035600 15 153 0.0 0.0 0.00 0.00 0.00 78
20260505035159 15 153 0.0 0.0 0.00 0.00 0.00 78
20260505035000 15 153 0.0 0.0 0.00 0.00 0.00 78
20260505034802 15 153 0.0 0.0 0.00 0.00 0.00 78
20260505034559 15 153 0.0 0.0 0.00 0.00 0.00 78
20260505034359 15 153 0.0 0.0 0.00 0.00 0.00 78
20260505033758 15 153 0.0 0.0 0.00 0.00 0.00 78
20260505033359 15 154 0.0 0.0 0.00 0.00 0.00 77
20260505033159 15 153 0.0 0.0 0.00 0.00 0.00 78
20260505033005 15 153 0.0 0.0 0.00 0.00 0.00 77
20260505032559 15 153 0.0 0.0 0.00 0.00 0.00 77
20260505032400 15 154 0.0 0.0 0.00 0.00 0.00 78
20260505032159 15 154 0.0 0.0 0.00 0.00 0.00 77
20260505032001 15 154 0.0 0.0 0.00 0.00 0.00 77
20260505031759 15 154 0.0 0.0 0.00 0.00 0.00 77
20260505031559 15 153 0.0 0.0 0.00 0.00 0.00 77
20260505031358 15 153 0.0 0.0 0.00 0.00 0.00 77
20260505031200 16 153 0.0 0.0 0.00 0.00 0.00 77
20260505031000 16 153 0.0 0.0 0.00 0.00 0.00 77
20260505030559 16 153 0.0 0.0 0.00 0.00 0.00 76
20260505030359 16 154 0.0 0.0 0.00 0.00 0.00 76
20260505030159 16 153 0.0 0.0 0.00 0.00 0.00 76
20260505030001 16 153 0.0 0.0 0.00 0.00 0.00 76
20260505025759 16 153 0.0 0.0 0.00 0.00 0.00 76
20260505025559 16 154 0.0 0.0 0.00 0.00 0.00 75
20260505025400 16 153 0.0 0.0 0.00 0.00 0.00 75
20260505025000 16 154 0.0 0.0 0.00 0.00 0.00 75
20260505024559 16 153 0.0 0.0 0.00 0.00 0.00 75
20260505024358 16 153 0.0 0.0 0.00 0.00 0.00 74
20260505024200 16 154 0.0 0.0 0.00 0.00 0.00 74
20260505023759 16 157 0.0 0.0 0.00 0.00 0.00 74
20260505023400 16 156 0.0 0.0 0.00 0.00 0.00 73
20260505023159 16 157 0.0 0.0 0.00 0.00 0.00 73
20260505023004 16 157 0.0 0.0 0.00 0.00 0.00 73
20260505022758 16 157 0.0 1.6 0.00 0.00 0.00 73
20260505022559 16 157 0.0 1.6 0.00 0.00 0.00 72
20260505022359 16 157 0.0 1.6 0.00 0.00 0.00 72
20260505022200 17 157 0.0 1.6 0.00 0.00 0.00 72
20260505022004 17 157 0.0 1.6 0.00 0.00 0.00 72
20260505021601 17 157 0.0 1.6 0.00 0.00 0.00 72
20260505021359 17 157 0.0 3.2 0.00 0.00 0.00 71
20260505021159 17 157 0.0 3.2 0.00 0.00 0.00 71
20260505021001 17 157 0.0 3.2 0.00 0.00 0.00 71
20260505020800 17 157 0.0 6.4 0.00 0.00 0.00 71
20260505020559 17 157 0.0 6.4 0.00 0.00 0.00 70
20260505020359 17 157 0.0 6.4 0.00 0.00 0.00 70
20260505020159 17 157 3.2 6.4 0.00 0.00 0.00 70
20260505020004 17 160 1.6 6.4 0.00 0.00 0.00 69
20260505015759 17 160 0.0 6.4 0.00 0.00 0.00 68
20260505015600 17 160 0.0 6.4 0.00 0.00 0.00 68
20260505015359 17 160 1.6 6.4 0.00 0.00 0.00 68
20260505015159 17 176 0.0 4.8 0.00 0.00 0.00 67
20260505015000 17 154 0.0 0.0 0.00 0.00 0.00 66
20260505014759 17 153 0.0 0.0 0.00 0.00 0.00 66
20260505014600 17 154 0.0 0.0 0.00 0.00 0.00 65
20260505014359 17 154 0.0 0.0 0.00 0.00 0.00 65
20260505014000 17 152 0.0 0.0 0.00 0.00 0.00 66
20260505013759 17 152 0.0 0.0 0.00 0.00 0.00 67
20260505013559 17 153 0.0 0.0 0.00 0.00 0.00 65
20260505013359 17 154 0.0 0.0 0.00 0.00 0.00 66
20260505013159 17 154 0.0 0.0 0.00 0.00 0.00 66
20260505012200 17 156 0.0 1.6 0.00 0.00 0.00 67
20260505012000 17 156 0.0 1.6 0.00 0.00 0.00 66
20260505011800 17 156 0.0 1.6 0.00 0.00 0.00 66
20260505011359 17 156 0.0 1.6 0.00 0.00 0.00 66
20260505011158 17 156 0.0 1.6 0.00 0.00 0.00 66
20260505011004 17 156 0.0 1.6 0.00 0.00 0.00 67
20260505010801 17 155 0.0 1.6 0.00 0.00 0.00 66
20260505010600 17 150 0.0 1.6 0.00 0.00 0.00 67
20260505010359 17 151 0.0 1.6 0.00 0.00 0.00 67
20260505010159 18 150 0.0 1.6 0.00 0.00 0.00 67
20260505010002 18 128 0.0 3.2 0.00 0.00 0.00 67
20260505005759 18 129 0.0 3.2 0.00 0.00 0.00 68
20260505005600 18 128 0.0 3.2 0.00 0.00 0.00 68
20260505005159 18 126 0.0 3.2 0.00 0.00 0.00 67
20260505005000 18 243 0.0 3.2 0.00 0.00 0.00 67
20260505004759 18 243 0.0 3.2 0.00 0.00 0.00 67
20260505004559 18 243 0.0 3.2 0.00 0.00 0.00 67
20260505004400 18 243 0.0 3.2 0.00 0.00 0.00 67
20260505004200 18 272 0.0 4.8 0.00 0.00 0.00 67
20260505003759 18 272 0.0 4.8 0.00 0.00 0.00 67
20260505003559 18 272 0.0 4.8 0.00 0.00 0.00 67
20260505003358 18 272 0.0 4.8 0.00 0.00 0.00 67
20260505003200 18 188 0.0 6.4 0.00 0.00 0.00 67
20260505003005 18 188 0.0 6.4 0.00 0.00 0.00 67
20260505002759 18 188 1.6 6.4 0.00 0.00 0.00 67
20260505002559 18 176 1.6 6.4 0.00 0.00 0.00 67
20260505002359 18 125 0.0 4.8 0.00 0.00 0.00 66
20260505002200 18 125 1.6 4.8 0.00 0.00 0.00 66
20260505002004 18 112 0.0 4.8 0.00 0.00 0.00 66
20260505001759 18 112 0.0 4.8 0.00 0.00 0.00 66
20260505001559 18 112 0.0 4.8 0.00 0.00 0.00 65
20260505001359 18 112 1.6 4.8 0.00 0.00 0.00 65
20260505001159 18 93 0.0 1.6 0.00 0.00 0.00 65
20260505001004 19 139 0.0 1.6 0.00 0.00 0.00 65
20260505000759 19 139 0.0 1.6 0.00 0.00 0.00 64
20260505000559 19 140 0.0 1.6 0.00 0.00 0.00 64
20260505000359 19 139 0.0 1.6 0.00 0.00 0.00 64
20260505000004 19 139 0.0 1.6 0.00 0.00 0.00 63
20260504235758 19 139 0.0 1.6 0.00 0.00 0.00 63
20260504235559 19 139 0.0 1.6 0.00 0.00 0.00 62
20260504235359 19 139 0.0 1.6 0.00 0.00 0.00 62
20260504235158 20 139 0.0 1.6 0.00 0.00 0.00 62
20260504234758 20 139 0.0 3.2 0.00 0.00 0.00 62
20260504234559 20 139 0.0 3.2 0.00 0.00 0.00 61
20260504234359 20 139 0.0 3.2 0.00 0.00 0.00 61
20260504234159 20 139 0.0 3.2 0.00 0.00 0.00 61
20260504234002 20 135 0.0 1.6 0.00 0.00 0.00 61
20260504233759 20 135 0.0 9.7 0.00 0.00 0.00 61
20260504233358 20 135 0.0 9.7 0.00 0.00 0.00 60
20260504233159 20 134 0.0 9.7 0.00 0.00 0.00 60
20260504233004 20 134 3.2 9.7 0.00 0.00 0.00 59
20260504232758 20 164 0.0 6.4 0.00 0.00 0.00 59
20260504232558 20 164 0.0 6.4 0.00 0.00 0.00 59
20260504232401 20 163 1.6 8.0 0.00 0.00 0.00 58
20260504232159 20 156 1.6 8.0 0.00 0.00 0.00 58
20260504232000 20 165 0.0 8.0 0.00 0.00 0.00 58
20260504231759 20 166 3.2 8.0 0.00 0.00 0.00 57
20260504231559 20 146 3.2 9.7 0.00 0.00 0.00 57
20260504231400 20 199 1.6 9.7 0.00 0.00 0.00 57
20260504231159 21 197 3.2 9.7 0.00 0.00 0.00 57
20260504231000 21 181 1.6 9.7 0.00 0.00 0.00 56
20260504230759 21 126 4.8 9.7 0.00 0.00 0.00 56
20260504230559 21 168 1.6 9.7 0.00 0.00 0.00 55
20260504230359 21 280 0.0 8.0 0.00 0.00 0.00 54
20260504230159 21 279 1.6 8.0 0.00 0.00 0.00 54
20260504225759 21 182 1.6 14.5 0.00 0.00 0.00 53
20260504225559 21 166 4.8 14.5 0.00 0.00 0.00 53
20260504225158 21 165 6.4 14.5 0.00 0.00 0.00 52
20260504225005 21 164 1.6 11.3 0.00 0.00 0.00 51
20260504224559 21 228 3.2 17.7 0.00 0.00 0.00 51
20260504224359 21 215 4.8 17.7 0.00 0.00 0.00 50
20260504224159 21 163 4.8 17.7 0.00 0.00 0.00 49
20260504224005 21 179 6.4 17.7 0.00 0.00 0.00 49
20260504223558 21 145 3.2 17.7 0.00 0.00 0.00 48
20260504223359 21 225 6.4 17.7 0.00 0.00 0.00 48
20260504223159 21 167 3.2 17.7 0.00 0.00 0.00 47
20260504223000 21 172 8.0 17.7 0.00 0.00 0.00 46
20260504222759 21 262 6.4 16.1 0.00 0.00 0.00 47
20260504222559 21 160 3.2 16.1 0.00 0.00 0.00 46
20260504222359 22 166 4.8 16.1 0.00 0.00 0.00 46
20260504222159 22 152 3.2 16.1 0.00 0.00 0.00 47
20260504222006 22 320 1.6 12.9 0.00 0.00 0.00 46
20260504221759 22 260 4.8 12.9 0.00 0.00 0.00 46
20260504221559 22 141 6.4 19.3 0.00 0.00 0.00 46
20260504221359 22 150 3.2 19.3 0.00 0.00 0.00 47
20260504221200 22 183 4.8 19.3 0.00 0.00 0.00 47
20260504220759 22 169 6.4 19.3 0.00 0.00 0.00 48
20260504220558 22 183 4.8 17.7 0.00 0.00 0.00 48
20260504220358 22 158 3.2 19.3 0.00 0.00 0.00 48
20260504220159 22 152 3.2 19.3 0.00 0.00 0.00 47
20260504220001 22 120 4.8 19.3 0.00 0.00 0.00 47
20260504215759 22 183 6.4 19.3 0.00 0.00 0.00 46
20260504215600 22 193 8.0 19.3 0.00 0.00 0.00 47
20260504215400 22 148 4.8 12.9 0.00 0.00 0.00 46
20260504215159 22 140 6.4 12.9 0.00 0.00 0.00 46
20260504215002 22 142 4.8 12.9 0.00 0.00 0.00 46
20260504214800 22 146 3.2 9.7 0.00 0.00 0.00 46
20260504214600 23 146 4.8 9.7 0.00 0.00 0.00 46
20260504214158 23 189 4.8 11.3 0.00 0.00 0.00 47
20260504214001 23 173 3.2 12.9 0.00 0.00 0.00 46
20260504213758 23 151 4.8 12.9 0.00 0.00 0.00 45
20260504213559 23 154 4.8 14.5 0.00 0.00 0.00 47
20260504213401 23 186 3.2 14.5 0.00 0.00 0.00 46
20260504213159 23 162 1.6 14.5 0.00 0.00 0.00 46
20260504213001 23 191 3.2 14.5 0.00 0.00 0.00 46
20260504212758 23 177 4.8 14.5 0.00 0.00 0.00 46
20260504212559 23 132 3.2 9.7 0.00 0.00 0.00 46
20260504212359 23 150 1.6 11.3 0.00 0.00 0.00 46
20260504212201 23 195 1.6 12.9 0.00 0.00 0.00 46
20260504211759 23 170 4.8 12.9 0.00 0.00 0.00 45
20260504211601 23 164 6.4 12.9 0.00 0.00 0.00 44
20260504211401 23 161 8.0 12.9 0.00 0.00 0.00 44
20260504211159 23 154 6.4 14.5 0.00 0.00 0.00 44
20260504211005 23 156 4.8 14.5 0.00 0.00 0.00 44
20260504210558 23 185 4.8 16.1 0.00 0.00 0.00 45
20260504210400 23 222 3.2 16.1 0.00 0.00 0.00 44
20260504210200 23 187 6.4 16.1 0.00 0.00 0.00 43
20260504210005 23 172 4.8 11.3 0.00 0.00 0.00 44
20260504205800 23 191 3.2 16.1 0.00 0.00 0.00 44
20260504205559 23 172 4.8 17.7 0.00 0.00 0.00 44
20260504205400 23 191 4.8 17.7 0.00 0.00 0.00 44
20260504205159 23 189 6.4 17.7 0.00 0.00 0.00 44
20260504205005 23 203 4.8 17.7 0.00 0.00 0.00 45
20260504204801 23 149 4.8 17.7 0.00 0.00 0.00 45
20260504204600 23 158 4.8 16.1 0.00 0.00 0.00 43
20260504204400 23 241 4.8 16.1 0.00 0.00 0.00 45
20260504204200 23 154 6.4 16.1 0.00 0.00 0.00 44
20260504203800 23 181 4.8 25.7 0.00 0.00 0.00 43
20260504203600 23 144 6.4 25.7 0.00 0.00 0.00 43
20260504203400 23 137 4.8 25.7 0.00 0.00 0.00 44
20260504203200 23 162 8.0 25.7 0.00 0.00 0.00 43
20260504203006 23 187 4.8 16.1 0.00 0.00 0.00 44
20260504202800 23 154 6.4 16.1 0.00 0.00 0.00 43
20260504202401 23 245 3.2 12.9 0.00 0.00 0.00 44
20260504202201 23 162 3.2 16.1 0.00 0.00 0.00 43
20260504202005 23 214 4.8 16.1 0.00 0.00 0.00 43
20260504201600 23 154 6.4 16.1 0.00 0.00 0.00 43
20260504201400 23 142 4.8 12.9 0.00 0.00 0.00 42
20260504201005 24 146 6.4 11.3 0.00 0.00 0.00 42
20260504200759 24 155 6.4 11.3 0.00 0.00 0.00 42
20260504200600 24 168 4.8 11.3 0.00 0.00 0.00 44
20260504200401 24 122 1.6 6.4 0.00 0.00 0.00 43
20260504200201 24 72 1.6 6.4 0.00 0.00 0.00 44
20260504200004 24 177 1.6 9.7 0.00 0.00 0.00 42
20260504195800 24 180 1.6 14.5 0.00 0.00 0.00 43
20260504195401 24 212 3.2 14.5 0.00 0.00 0.00 41
20260504195001 24 115 1.6 11.3 0.00 0.00 0.00 40
20260504194800 24 193 0.0 11.3 0.00 0.00 0.00 38
20260504194559 24 193 3.2 11.3 0.00 0.00 0.00 38
20260504194401 23 193 3.2 8.0 0.00 0.00 0.00 41
20260504194158 23 194 0.0 6.4 0.00 0.00 0.00 44
20260504194005 23 204 1.6 9.7 0.00 0.00 0.00 43
20260504193800 23 216 1.6 9.7 0.00 0.00 0.00 44
20260504193559 23 36 1.6 9.7 0.00 0.00 0.00 42
20260504193400 23 68 1.6 9.7 0.00 0.00 0.00 44
20260504193159 23 218 3.2 9.7 0.00 0.00 0.00 46
20260504193005 23 350 3.2 6.4 0.00 0.00 0.00 47
20260504192802 23 324 1.6 6.4 0.00 0.00 0.00 45
20260504192559 23 155 3.2 6.4 0.00 0.00 0.00 43
20260504192359 23 270 0.0 9.7 0.00 0.00 0.00 42
20260504191759 23 134 3.2 9.7 0.00 0.00 0.00 44
20260504191359 23 208 3.2 8.0 0.00 0.00 0.00 44
20260504191158 23 141 4.8 8.0 0.00 0.00 0.00 44
20260504191004 23 129 3.2 8.0 0.00 0.00 0.00 46
20260504190759 23 77 1.6 6.4 0.00 0.00 0.00 45
20260504190559 24 70 1.6 4.8 0.00 0.00 0.00 46
20260504190400 24 60 0.0 4.8 0.00 0.00 0.00 49
20260504190200 24 41 1.6 4.8 0.00 0.00 0.00 47
20260504185559 24 112 1.6 9.7 0.00 0.00 0.00 43
20260504185359 24 165 1.6 9.7 0.00 0.00 0.00 43
20260504185200 23 155 1.6 9.7 0.00 0.00 0.00 41
20260504185005 23 130 0.0 9.7 0.00 0.00 0.00 41
20260504184759 23 123 4.8 9.7 0.00 0.00 0.00 41
20260504184559 23 167 3.2 9.7 0.00 0.00 0.00 42
20260504184359 23 154 1.6 8.0 0.00 0.00 0.00 42
20260504184200 23 154 3.2 8.0 0.00 0.00 0.00 42
20260504184004 23 149 0.0 12.9 0.00 0.00 0.00 42
20260504183759 23 149 0.0 12.9 0.00 0.00 0.00 41
20260504183600 23 149 1.6 12.9 0.00 0.00 0.00 41
20260504183359 23 148 3.2 12.9 0.00 0.00 0.00 40
20260504183159 23 227 1.6 9.7 0.00 0.00 0.00 39
20260504182759 23 137 3.2 9.7 0.00 0.00 0.00 40
20260504182559 23 120 1.6 12.9 0.00 0.00 0.00 40
20260504182400 23 140 1.6 12.9 0.00 0.00 0.00 41
20260504182202 23 144 3.2 12.9 0.00 0.00 0.00 40
20260504182005 23 164 4.8 12.9 0.00 0.00 0.00 42
20260504181600 23 156 0.0 9.7 0.00 0.00 0.00 41
20260504181401 23 156 3.2 9.7 0.00 0.00 0.00 40
20260504181003 23 162 3.2 9.7 0.00 0.00 0.00 42
20260504180558 23 162 1.6 16.1 0.00 0.00 0.00 42
20260504180159 23 184 1.6 16.1 0.00 0.00 0.00 44
20260504180005 23 310 1.6 16.1 0.00 0.00 0.00 47
20260504175758 22 162 4.8 16.1 0.00 0.00 0.00 43
20260504175600 22 41 0.0 4.8 0.00 0.00 0.00 46
20260504175359 22 39 0.0 8.0 0.00 0.00 0.00 52
20260504175159 22 39 3.2 8.0 0.00 0.00 0.00 47
20260504174759 22 54 1.6 8.0 0.00 0.00 0.00 48
20260504174559 22 222 1.6 8.0 0.00 0.00 0.00 47
20260504174359 22 350 1.6 8.0 0.00 0.00 0.00 45
20260504174200 22 160 3.2 8.0 0.00 0.00 0.00 45
20260504174006 22 45 1.6 6.4 0.00 0.00 0.00 47
20260504173759 22 299 1.6 6.4 0.00 0.00 0.00 49
20260504173601 22 23 1.6 6.4 0.00 0.00 0.00 52
20260504173400 22 43 1.6 6.4 0.00 0.00 0.00 55
20260504173200 22 47 1.6 6.4 0.00 0.00 0.00 54
20260504172759 22 45 0.0 4.8 0.00 0.00 0.00 53
20260504172600 22 43 1.6 6.4 0.00 0.00 0.00 51
20260504172200 22 8 3.2 6.4 0.00 0.00 0.00 53
20260504172004 21 35 1.6 6.4 0.00 0.00 0.00 53
20260504171759 21 93 1.6 8.0 0.00 0.00 0.00 53
20260504171604 21 120 0.0 4.8 0.00 0.00 0.00 51
20260504171402 21 121 1.6 4.8 0.00 0.00 0.00 49
20260504171159 21 120 1.6 4.8 0.00 0.00 0.00 49
20260504170601 21 58 1.6 8.0 0.00 0.00 0.00 51
20260504170401 21 176 1.6 8.0 0.00 0.00 0.00 49
20260504170200 21 48 0.0 8.0 0.00 0.00 0.00 54
20260504160359 21 65 0.0 4.8 0.00 0.00 0.00 53
20260504160200 21 46 1.6 4.8 0.00 0.00 0.00 50
20260504150800 20 228 4.8 9.7 0.00 0.00 0.00 41
20260504150600 19 195 3.2 9.7 0.00 0.00 0.00 42
20260504150359 19 162 1.6 9.7 0.00 0.00 0.00 42
20260504150159 19 157 3.2 9.7 0.00 0.00 0.00 42
20260504141159 17 165 4.8 11.3 0.00 0.00 0.00 49
20260504140759 16 254 6.4 11.3 0.00 0.00 0.00 53
20260504140359 16 239 3.2 6.4 0.00 0.00 0.00 57
20260504140159 16 261 1.6 6.4 0.00 0.00 0.00 51
20260504130601 14 236 6.4 16.1 0.00 0.00 0.00 56
20260504130401 14 212 6.4 16.1 0.00 0.00 0.00 55
20260504130201 14 238 8.0 20.9 0.00 0.00 0.00 55
20260504120200 12 242 9.7 22.5 0.00 0.00 0.00 59
20260504110600 11 229 3.2 12.9 0.00 0.00 0.00 64
20260504110400 11 239 3.2 12.9 0.00 0.00 0.00 64
20260504110159 11 240 3.2 11.3 0.00 0.00 0.00 64
20260504100600 11 218 3.2 12.9 0.00 0.00 0.00 65
20260504100400 11 216 4.8 12.9 0.00 0.00 0.00 65
20260504082005 11 239 0.0 3.2 0.00 0.00 0.00 65
20260504081801 11 239 0.0 3.2 0.00 0.00 0.00 65
20260504081401 11 239 0.0 3.2 0.00 0.00 0.00 65
20260504081005 11 239 0.0 3.2 0.00 0.00 0.00 65
20260504080758 11 239 0.0 3.2 0.00 0.00 0.00 65
20260504080601 11 238 0.0 3.2 0.00 0.00 0.00 66
20260504080402 11 238 0.0 3.2 0.00 0.00 0.00 65
20260504070359 10 233 0.0 4.8 0.00 0.00 0.00 66
20260504070159 10 233 1.6 4.8 0.00 0.00 0.00 66